Flag for United Kingdom Weather past 2 weeks in Sheffield, England, United Kingdom

Now
72 °F

Passing clouds.


Feels Like: 77 °F
Forecast: 54 / 65 °F
Wind: 7 mph from East

Location: Manchester Airport

Current Time: Sep 16, 2014 at 3:05:53 PM

Latest Report: Sep 16, 2014 at 2:20 PM


Visibility: N/A

Pressure: 29.98 "Hg

Humidity: 50%

Dew point: 52 °F

Location of SheffieldLocation

Historic Weather in Sheffield — Graph

°F

Sheffield temperature yesterday

Maximum temperature yesterday: 68 °F (at 2:20 PM)
Minimum temperature yesterday: 54 °F (at 12:20 AM)
Average temperature yesterday: 60 °F

Past Weeks' High & Low Weather Summary

 TemperatureHumidityPressure
High72 °F (Sep 5, 1:50 PM)100% (Sep 2, 1:20 AM)30.39 "Hg (Sep 2, 1:20 AM)
Low45 °F (Sep 2, 5:50 AM)49% (Sep 7, 4:20 PM)29.95 "Hg (Sep 6, 4:20 AM)
Average58 °F80%30.16 "Hg
* Reported Sep 1 1:20 PM — Sep 16 1:50 PM, Sheffield, Weather by CustomWeather, © 2014

Note: Actual official high and low records may vary slightly from our data, if they occured in-between our weather recording intervals... More about our weather records

Advertising

Sheffield weather history for previous 24 hours

 ConditionsComfort  
Time TempWeatherWind HumidityBarometerVisibility
1:50 PM
Sep 16
70 °FPassing clouds.7 mph53%29.98 "HgN/A
1:20 PM70 °FPassing clouds.7 mph57%30.01 "HgN/A
12:50 PM70 °FPassing clouds.8 mph57%30.01 "HgN/A
12:20 PM68 °FPassing clouds.8 mph60%30.01 "HgN/A
11:50 AM68 °FPassing clouds.8 mph60%30.01 "HgN/A
11:20 AM66 °FPassing clouds.8 mph73%30.01 "HgN/A
10:50 AM64 °FPassing clouds.7 mph78%30.04 "HgN/A
10:20 AM64 °FScattered clouds.6 mph78%30.04 "Hg6 mi
9:50 AM63 °FScattered clouds.7 mph77%30.01 "Hg6 mi
9:20 AM63 °FMostly cloudy.6 mph83%30.01 "Hg4 mi
8:50 AM59 °FCool.6 mph94%30.01 "Hg4 mi
8:20 AM59 °FPassing clouds.5 mph94%30.01 "Hg4 mi
7:50 AM57 °FHaze.8 mph94%30.01 "Hg3 mi
7:20 AM57 °FFog.7 mph94%30.01 "Hg3 mi
6:50 AM55 °FPassing clouds.6 mph100%30.01 "Hg4 mi
6:20 AM55 °FPassing clouds.6 mph100%30.01 "Hg6 mi
5:50 AM55 °FPassing clouds.6 mph100%30.01 "Hg4 mi
5:20 AM57 °FPassing clouds.6 mph94%30.01 "Hg4 mi
4:50 AM57 °FPassing clouds.5 mph94%30.01 "Hg4 mi
4:20 AM57 °FPassing clouds.5 mph100%30.01 "Hg4 mi
3:50 AM57 °FPassing clouds.3 mph100%30.01 "Hg5 mi
3:20 AM57 °FPassing clouds.5 mph100%30.01 "Hg4 mi
2:50 AM57 °FClear.5 mph100%30.01 "Hg4 mi
1:50 AM59 °FClear.6 mph94%30.01 "Hg4 mi
1:20 AM59 °FPassing clouds.6 mph94%30.01 "Hg3 mi
12:50 AM59 °FPassing clouds.6 mph94%30.04 "Hg5 mi
12:20 AM59 °FPassing clouds.5 mph94%30.04 "Hg5 mi
11:50 PM
Sep 15
59 °FPassing clouds.5 mph94%30.04 "Hg5 mi
11:20 PM59 °FClear.No wind88%30.04 "Hg6 mi
10:50 PM61 °FClear.7 mph83%30.04 "Hg6 mi
10:20 PM59 °FClear.7 mph88%30.04 "Hg10 mi
9:50 PM59 °FClear.6 mph88%30.04 "Hg10 mi
9:20 PM59 °FClear.6 mph88%30.04 "Hg10 mi
8:50 PM59 °FClear.6 mph88%30.04 "Hg10 mi
8:20 PM61 °FSunny.6 mph83%30.04 "Hg10 mi
7:50 PM63 °FSunny.8 mph77%30.04 "Hg10 mi
7:20 PM63 °FPassing clouds.7 mph77%30.01 "HgN/A
6:50 PM64 °FPassing clouds.6 mph78%30.01 "HgN/A
6:20 PM64 °FPassing clouds.3 mph78%30.01 "HgN/A
5:50 PM64 °FPassing clouds.3 mph78%30.01 "HgN/A
5:20 PM64 °FPassing clouds.3 mph78%30.01 "HgN/A
4:50 PM64 °FPassing clouds.5 mph73%30.04 "HgN/A
4:20 PM64 °FPassing clouds.7 mph73%30.04 "HgN/A
3:50 PM66 °FPassing clouds.9 mph68%30.04 "HgN/A
3:20 PM66 °FPassing clouds.9 mph68%30.04 "HgN/A
Weather by CustomWeather, © 2014

See weather overviewHow to use our weather pages